Weather History for Baltimore Martin, MD

Change the Weather History Date:

Friday, May 25, 2012

  Actual Average Record
Temperature  
Mean Temperature 76 °F -  
Max Temperature 82 °F 71 °F 84 °F (2004)
Min Temperature 71 °F 56 °F 46 °F (2013)
Cooling Degree Days 12    
Growing Degree Days 26 (Base 50)    
Moisture  
Dew Point 70 °F    
Average Humidity 80    
Maximum Humidity 94    
Minimum Humidity 66    
Precipitation  
Precipitation 0.00 in - - ()
Sea Level Pressure  
Sea Level Pressure 30.14 in    
Wind  
Wind Speed 5 mph (SE)    
Max Wind Speed 10 mph    
Max Gust Speed -    
Visibility 7 miles    
Events      
Averages and records for this station are not official NWS values.
T = Trace of Precipitation, MM = Missing Value Source: NWS Daily Summary

Daily Weather History Graph

Daily Weather History Graph

Search for Another Location

Airport:

Trip Planner

Search our weather history database for the weather conditions in past years. The results will help you decide how hot, cold, wet, or windy it might be!

Date:

Astronomy

May. 25, 2012 Rise Set
Actual Time 5:44 AM EDT 8:21 PM EDT
Civil Twilight 5:13 AM EDT 8:52 PM EDT
Nautical Twilight 4:34 AM EDT 9:31 PM EDT
Astronomical Twilight 3:50 AM EDT 10:15 PM EDT
Moon 9:40 AM EDT (5/25) 11:56 PM EDT (5/25)
Length of Visible Light 15h 39m
Length of Day
14h 37m
Waxing Crescent, 19% of the Moon is Illuminated
May 25
Waxing Crescent
May 28
First Quarter
Jun 4
Full
Jun 11
Last Quarter
Jun 19
New

Hourly Weather History & Observations

Time (EDT) Temp. Heat Index Dew Point Humidity Pressure Visibility Wind Dir Wind Speed Gust Speed Precip Events Conditions
5:45 AM 71.6 °F - 69.8 °F 94% 30.14 in 7.0 mi East 4.6 mph - N/A   Overcast
6:50 AM 71.6 °F - 69.8 °F 94% 30.15 in 7.0 mi East 3.5 mph - N/A   Overcast
7:15 AM 71.6 °F - 69.8 °F 94% 30.16 in 3.0 mi East 4.6 mph - N/A   Overcast
7:45 AM 71.6 °F - 69.8 °F 94% 30.16 in 2.5 mi East 4.6 mph - N/A   Overcast
8:45 AM 71.6 °F - 69.8 °F 94% 30.16 in 5.0 mi East 4.6 mph - N/A   Overcast
9:55 AM 73.4 °F - 69.8 °F 88% 30.16 in 5.0 mi Calm Calm - N/A   Overcast
10:20 AM 75.2 °F - 69.8 °F 83% 30.16 in 7.0 mi Calm Calm - N/A   Mostly Cloudy
10:45 AM 77.0 °F - 71.6 °F 83% 30.15 in 7.0 mi ESE 3.5 mph - N/A   Mostly Cloudy
11:54 AM 80.6 °F 84.6 °F 71.6 °F 74% 30.15 in 5.0 mi SE 5.8 mph - N/A   Haze
12:54 PM 80.6 °F 84.6 °F 71.6 °F 74% 30.15 in 7.0 mi SE 9.2 mph - N/A   Mostly Cloudy
1:45 PM 80.6 °F 84.6 °F 71.6 °F 74% 30.14 in 7.0 mi ESE 10.4 mph - N/A   Scattered Clouds
2:45 PM 82.4 °F 87.2 °F 71.6 °F 70% 30.13 in 7.0 mi SE 8.1 mph - N/A   Scattered Clouds
3:45 PM 82.4 °F 88.2 °F 73.4 °F 74% 30.12 in 7.0 mi ESE 5.8 mph - N/A   Partly Cloudy
4:45 PM 82.4 °F 86.3 °F 69.8 °F 66% 30.13 in 7.0 mi SSE 9.2 mph - N/A   Scattered Clouds
5:45 PM 82.4 °F 87.2 °F 71.6 °F 70% 30.12 in 10.0 mi SE 6.9 mph - N/A   Scattered Clouds
6:45 PM 82.4 °F 86.3 °F 69.8 °F 66% 30.12 in 10.0 mi SSE 5.8 mph - N/A   Partly Cloudy
7:45 PM 78.8 °F - 68.0 °F 69% 30.12 in 10.0 mi SSE 5.8 mph - N/A   Scattered Clouds
8:55 PM 77.0 °F - 68.0 °F 74% 30.13 in 10.0 mi South 5.8 mph - N/A   Mostly Cloudy
9:50 PM 75.2 °F - 69.8 °F 83% 30.13 in 10.0 mi South 6.9 mph - N/A   Mostly Cloudy